TimeEST,TemperatureF,Dew PointF,Humidity,Sea Level PressureIn,VisibilityMPH,Wind Direction,Wind SpeedMPH,Gust SpeedMPH,PrecipitationIn,Events,Conditions,WindDirDegrees,DateUTC
12:51 AM,41.0,39.2,93,30.14,9.0,Calm,Calm,-,N/A,,Clear,0,2013-01-11 05:51:00
1:51 AM,42.8,41.0,93,30.14,10.0,Calm,Calm,-,N/A,,Overcast,0,2013-01-11 06:51:00
2:51 AM,43.0,41.0,93,30.13,10.0,ESE,5.8,-,0.00,,Mostly Cloudy,110,2013-01-11 07:51:00
3:51 AM,52.0,44.1,74,30.13,10.0,SE,6.9,-,N/A,,Clear,140,2013-01-11 08:51:00
4:51 AM,55.0,46.0,72,30.11,10.0,SE,6.9,-,0.00,Rain,Light Rain,140,2013-01-11 09:51:00
5:51 AM,52.0,46.9,83,30.06,10.0,ESE,8.1,-,0.09,Rain,Light Rain,110,2013-01-11 10:51:00
6:51 AM,54.0,48.0,80,30.04,10.0,SE,9.2,-,0.00,,Overcast,130,2013-01-11 11:51:00
7:51 AM,55.9,48.0,75,30.03,10.0,SE,10.4,-,N/A,,Overcast,130,2013-01-11 12:51:00
8:51 AM,57.9,48.9,72,30.00,10.0,SSE,9.2,16.1,N/A,,Mostly Cloudy,160,2013-01-11 13:51:00
9:51 AM,60.1,51.1,72,29.98,10.0,SSE,12.7,24.2,0.00,Rain,Light Rain,160,2013-01-11 14:51:00
10:24 AM,57.2,51.8,82,30.04,2.0,West,17.3,26.5,0.00,Rain,Heavy Rain,260,2013-01-11 15:24:00
10:41 AM,55.4,53.6,94,30.05,2.0,West,9.2,17.3,0.09,Rain,Rain,260,2013-01-11 15:41:00
10:51 AM,55.9,54.0,93,30.05,2.0,WSW,5.8,-,0.11,Rain,Light Rain,250,2013-01-11 15:51:00
11:34 AM,55.4,55.4,100,30.04,3.0,SSW,3.5,-,0.06,Rain,Light Rain,210,2013-01-11 16:34:00
11:48 AM,55.4,55.4,100,30.03,2.0,SSW,3.5,-,0.06,Rain,Rain,210,2013-01-11 16:48:00
11:51 AM,55.4,55.4,100,30.04,2.0,SSW,3.5,-,N/A,Rain,Rain,210,2013-01-11 16:51:00
12:28 PM,55.4,55.4,100,30.01,3.0,SSW,3.5,-,0.04,Rain,Light Rain,210,2013-01-11 17:28:00
12:37 PM,55.4,55.4,100,30.01,2.0,SSW,3.5,-,0.04,Rain,Light Rain,200,2013-01-11 17:37:00
12:51 PM,55.9,55.0,97,30.00,2.0,SSW,8.1,-,0.05,Rain,Light Rain,200,2013-01-11 17:51:00
1:19 PM,57.2,55.4,94,29.99,4.0,SSW,6.9,-,0.01,Rain,Light Rain,210,2013-01-11 18:19:00
1:51 PM,57.9,55.9,93,29.99,10.0,SSW,8.1,-,0.02,,Overcast,210,2013-01-11 18:51:00
2:51 PM,59.0,57.0,93,29.98,10.0,South,6.9,-,N/A,,Mostly Cloudy,190,2013-01-11 19:51:00
3:51 PM,60.1,57.0,90,29.98,10.0,SSW,5.8,-,N/A,,Scattered Clouds,200,2013-01-11 20:51:00
4:51 PM,60.1,57.0,90,29.98,10.0,South,6.9,-,N/A,,Clear,180,2013-01-11 21:51:00
5:51 PM,59.0,55.9,90,29.99,10.0,SSW,4.6,-,N/A,,Clear,200,2013-01-11 22:51:00
6:51 PM,57.9,55.9,93,30.00,10.0,South,4.6,-,N/A,,Clear,190,2013-01-11 23:51:00
7:51 PM,57.9,55.9,93,30.00,10.0,SSE,4.6,-,N/A,,Clear,160,2013-01-12 00:51:00
8:51 PM,55.9,55.0,97,30.01,10.0,SSE,3.5,-,N/A,,Clear,160,2013-01-12 01:51:00
9:40 PM,55.4,53.6,94,30.02,7.0,Calm,Calm,-,N/A,,Scattered Clouds,0,2013-01-12 02:40:00
9:48 PM,55.4,53.6,94,30.02,3.0,Calm,Calm,-,N/A,,Mostly Cloudy,0,2013-01-12 02:48:00
9:51 PM,54.0,54.0,100,30.01,3.0,Calm,Calm,-,N/A,,Mostly Cloudy,0,2013-01-12 02:51:00
10:51 PM,53.1,52.0,96,30.01,6.0,Calm,Calm,-,N/A,,Mostly Cloudy,0,2013-01-12 03:51:00
11:51 PM,55.0,54.0,96,30.01,6.0,SSW,3.5,-,N/A,,Partly Cloudy,200,2013-01-12 04:51:00